GFSSGP_925_spd_198.txt.gz
Wind_Speed
11 15 11 4 4 4 3 4 1 8 9 4 11 4 3 5 2 3 9 11 16 18 17 16 15 15 12 12 12 12 14 14 14 14 13 13 13 14 12 12 13 13 13 13 13 13 13 13 12
14 12 3 2 5 6 4 4 9 10 9 11 9 5 4 4 3 8 13 10 18 18 16 16 16 14 14 12 12 13 14 14 13 13 14 14 13 12 12 11 11 11 12 12 12 12 12 12 12
11 5 3 3 4 8 2 6 8 7 12 9 7 1 1 5 6 16 10 17 18 16 13 17 18 15 13 11 12 14 16 13 12 13 14 14 13 12 12 11 11 11 10 11 11 11 11 11 11
4 5 3 5 9 5 2 5 9 14 4 6 4 7 5 2 16 10 17 20 19 16 15 18 18 15 12 11 12 15 13 11 12 12 13 13 12 12 11 11 8 8 10 9 9 9 9 10 10
5 3 5 5 9 2 3 4 15 14 10 9 6 6 4 8 8 14 21 20 20 18 17 17 16 13 12 12 12 14 12 11 11 11 11 11 11 10 10 9 8 8 7 7 7 7 8 8 8
5 3 6 11 10 4 2 9 13 10 9 9 6 10 6 5 12 18 21 20 19 19 17 15 14 12 12 12 11 12 12 9 8 7 8 9 9 9 8 7 7 6 6 5 6 7 7 7 8
9 6 11 9 12 4 5 12 14 12 10 9 9 10 5 9 14 19 20 19 18 17 16 15 13 12 12 13 11 10 10 9 9 8 6 7 8 8 7 7 7 7 7 7 7 7 7 7 8
7 4 8 8 10 10 9 14 8 11 10 6 7 6 7 16 19 19 19 18 17 17 16 15 13 13 12 14 11 9 9 8 7 7 7 5 5 6 6 7 7 8 8 8 7 7 7 7 7
3 8 11 13 8 6 12 12 6 3 10 5 7 3 6 25 22 20 20 18 17 17 16 15 14 14 12 12 11 9 8 8 7 6 5 4 3 3 5 6 6 7 7 8 8 9 9 9 9
9 11 13 5 7 7 16 15 14 9 11 6 9 5 20 25 24 23 21 21 19 19 17 15 15 14 13 11 10 8 8 6 5 4 4 3 3 4 4 5 6 6 7 7 8 10 12 10 6
7 14 10 3 6 4 16 13 11 9 11 12 16 15 21 25 22 21 20 20 20 19 17 16 16 15 14 11 10 8 7 6 5 4 4 3 3 2 3 4 5 5 8 6 7 9 10 12 11
9 11 5 3 3 7 15 12 9 15 2 7 13 21 25 22 23 23 22 21 20 19 18 17 16 15 13 10 9 8 6 6 6 5 4 2 1 2 3 4 5 6 8 8 8 9 9 8 9
6 5 7 3 4 4 9 16 14 16 2 8 18 22 21 22 23 21 19 18 19 19 19 19 17 15 13 11 9 8 8 6 5 3 3 2 2 1 2 3 5 6 8 7 7 8 7 7 9
16 9 6 4 5 4 13 9 6 13 7 14 19 20 20 21 24 20 20 19 20 19 20 19 18 16 14 12 10 9 8 6 4 3 3 3 2 1 2 3 5 5 6 5 5 5 4 5 7
3 11 5 5 6 5 9 5 14 9 12 15 16 18 19 21 24 24 23 22 21 20 20 20 19 17 15 12 10 9 8 7 5 5 5 5 3 2 2 4 9 8 5 4 3 4 6 8 10
4 6 14 5 8 4 10 17 18 10 14 15 15 16 18 20 24 23 22 20 20 19 20 20 18 18 16 14 12 10 8 7 7 7 7 6 4 3 3 6 4 4 3 2 4 5 6 7 7
5 14 19 7 4 4 12 14 15 12 14 15 14 15 16 17 20 22 21 21 21 20 20 19 19 19 18 15 13 11 11 9 9 8 8 6 4 4 3 2 2 2 3 4 5 6 6 7 7
22 20 9 14 8 4 15 8 9 12 14 16 16 15 16 17 20 23 22 21 20 20 19 19 19 19 19 18 16 14 12 11 11 10 8 6 6 4 1 1 3 4 3 4 5 8 8 7 6
14 18 16 17 6 5 14 15 9 12 12 14 15 16 16 18 18 19 20 21 20 20 21 22 22 22 22 21 16 12 13 12 12 10 9 7 5 3 4 5 5 4 4 5 6 7 7 6 4
15 26 16 5 4 4 4 13 5 12 12 17 18 17 18 16 15 18 21 21 23 23 24 24 24 23 24 21 18 17 20 12 11 11 9 8 7 6 7 6 5 5 4 5 6 6 6 4 1
15 21 19 17 8 3 2 12 11 8 10 10 13 15 16 18 17 16 21 24 23 25 26 26 26 25 26 21 21 19 17 13 14 12 10 9 9 9 8 7 7 6 6 5 5 6 4 4 2
9 9 17 16 17 11 3 11 21 20 15 15 17 16 18 18 16 16 21 23 26 27 24 24 24 25 25 25 24 26 17 14 13 15 13 12 10 9 9 8 7 7 7 6 6 6 6 5 5
4 7 8 6 5 6 6 7 18 13 21 19 18 19 18 18 17 18 22 25 24 21 21 21 22 23 24 27 23 23 20 18 15 15 14 14 13 12 10 10 9 8 8 8 8 8 7 6 5
8 15 10 7 4 4 15 16 18 13 16 21 19 20 19 18 17 16 19 18 18 17 19 20 21 23 23 24 22 22 26 22 19 17 16 15 13 13 12 11 10 9 9 9 9 9 8 8 7
3 19 4 3 4 7 10 10 17 6 14 15 22 22 21 16 15 14 14 16 15 16 17 18 21 21 21 22 21 24 26 21 18 20 17 17 16 15 15 13 12 11 10 11 10 9 8 7 6
16 12 7 8 7 6 2 12 10 18 11 8 5 8 11 12 11 12 13 15 15 16 17 17 19 19 21 21 22 25 23 19 19 17 17 18 16 17 17 14 12 13 11 10 10 9 8 8 6
6 9 4 5 2 3 7 6 9 7 9 10 10 6 9 10 9 9 10 13 15 16 16 17 18 18 19 18 22 23 21 20 17 18 18 18 18 18 17 15 14 13 12 11 10 8 7 7 6
9 10 3 2 7 7 4 9 8 6 12 10 10 14 9 6 7 7 9 13 15 16 15 15 15 16 16 18 19 20 20 20 19 19 20 21 21 20 19 17 16 14 13 11 10 10 8 6 6
6 6 2 3 0 3 3 4 8 14 6 12 13 9 10 9 9 8 9 13 14 14 14 15 16 17 17 18 19 19 20 20 20 19 21 22 22 22 20 19 17 16 15 13 11 9 9 8 7
7 10 9 7 7 2 2 3 1 1 2 2 3 7 8 9 9 9 12 16 16 16 15 16 15 18 19 19 19 20 20 20 21 21 22 23 22 21 20 19 18 17 15 14 13 11 10 10 8

GFSSGP_925_spd_201.txt.gz
Wind_Speed
1 8 7 6 6 6 11 3 1 6 6 4 10 1 3 12 8 5 18 13 20 19 18 16 15 14 13 13 13 14 15 14 14 14 13 14 13 12 13 13 13 12 13 14 14 14 13 14 13
4 7 5 6 7 10 8 5 7 8 9 8 8 4 4 6 7 13 15 18 21 20 18 16 16 12 12 12 13 14 14 14 14 14 13 12 12 12 12 12 12 13 13 13 13 13 13 13 14
5 5 7 5 9 13 2 5 8 9 10 12 7 3 2 5 11 17 18 22 20 19 17 17 16 14 13 13 14 14 13 13 14 14 14 13 12 13 11 12 10 11 12 12 11 11 12 12 13
2 5 5 7 13 14 4 5 8 12 7 7 5 7 6 4 17 12 22 22 21 17 16 17 17 15 13 13 14 14 12 13 13 13 13 12 11 11 10 9 8 8 9 10 10 10 10 10 11
7 5 9 11 17 9 4 2 11 14 11 11 10 7 6 13 12 20 22 22 21 18 18 19 18 14 13 13 15 12 11 12 12 12 12 11 10 9 8 7 8 8 8 8 8 9 9 9 11
7 4 10 14 16 12 5 5 12 14 12 11 9 11 7 13 15 21 21 21 20 20 20 18 16 13 14 14 14 13 12 8 9 9 10 9 9 8 8 7 7 8 8 8 8 9 9 10 10
12 11 14 15 17 13 10 7 13 14 11 11 6 12 6 12 16 21 21 20 20 19 18 17 14 13 14 14 13 13 11 9 8 7 7 8 7 8 8 8 8 9 9 9 9 8 8 8 9
11 13 19 19 14 15 7 11 8 12 11 7 8 6 7 18 21 22 21 20 20 17 17 16 14 13 13 14 12 12 9 9 8 6 5 6 7 7 8 8 7 8 8 8 8 8 8 7 8
16 13 15 20 17 13 9 12 8 3 9 9 7 1 11 28 24 24 22 20 20 19 17 16 15 14 15 15 12 10 9 8 7 7 5 5 3 4 5 5 6 6 7 7 8 9 11 8 6
11 12 20 16 14 12 12 15 14 8 12 10 10 5 26 28 25 26 24 23 21 20 19 17 16 16 14 12 11 9 8 6 5 5 4 4 4 4 4 5 7 7 8 7 9 12 12 11 9
11 19 14 16 11 9 11 15 15 12 14 14 17 17 21 25 23 21 22 22 21 20 19 17 17 16 15 13 11 9 7 7 6 6 5 5 4 2 3 3 5 6 8 6 7 7 8 8 9
17 20 20 16 5 6 11 14 14 17 5 14 14 19 22 22 22 24 23 22 22 22 19 18 17 17 15 12 11 10 8 8 7 6 6 4 3 1 2 3 3 4 6 6 6 6 6 6 8
21 16 18 12 8 8 9 15 14 18 5 5 16 20 22 20 24 24 22 21 21 21 20 20 18 17 15 13 11 10 9 9 8 7 5 4 2 1 1 3 4 5 6 5 4 3 4 6 9
9 24 14 13 13 7 8 13 13 15 9 12 18 20 21 22 25 24 23 22 23 22 21 20 19 17 16 13 11 11 11 10 8 6 5 4 3 2 2 2 5 5 5 4 3 2 4 4 7
7 11 18 14 13 9 12 15 14 12 13 16 17 17 19 19 24 24 25 23 23 23 22 21 20 18 16 14 13 12 11 9 7 6 5 4 3 2 1 3 4 3 2 2 1 2 5 7 8
4 5 13 16 10 7 13 18 22 14 16 17 17 17 18 20 25 24 23 22 22 22 23 22 20 19 17 15 14 12 11 9 8 6 5 4 2 2 2 1 0 1 1 2 3 3 5 5 7
11 12 22 17 14 7 15 14 18 17 17 16 17 17 17 18 21 25 24 23 24 23 22 22 21 20 19 17 14 12 11 9 8 7 5 5 4 3 1 1 1 3 3 3 3 4 5 6 6
16 18 17 21 14 13 16 16 15 18 17 18 17 17 18 19 21 25 25 24 23 23 22 23 22 21 20 17 15 13 12 9 8 7 6 6 4 3 2 1 2 3 3 3 4 5 6 5 5
21 21 19 27 11 17 17 19 13 14 17 19 18 17 17 19 21 25 25 24 24 24 24 24 24 23 23 21 20 16 14 11 10 9 10 8 6 5 4 3 3 4 4 4 5 7 7 6 5
21 20 16 7 7 12 18 19 19 12 18 21 20 19 18 18 19 23 26 26 26 26 26 26 25 25 26 23 20 15 14 11 9 12 12 11 7 6 5 4 4 4 4 5 6 6 5 4 3
8 20 19 12 4 2 5 15 19 15 14 16 19 18 19 20 20 20 24 27 27 28 28 27 27 26 26 21 20 13 13 12 11 12 12 10 8 8 8 8 7 7 6 5 5 5 5 5 3
17 10 12 14 15 13 9 10 21 21 18 18 19 18 20 20 20 19 22 26 28 28 27 27 27 27 26 25 23 22 17 15 12 18 12 12 11 10 10 8 8 7 6 6 6 6 5 6 5
5 7 5 3 14 7 1 6 17 22 24 23 21 21 20 20 21 21 21 28 29 27 27 26 26 26 25 27 23 21 17 14 15 16 16 13 12 11 11 10 9 8 7 7 7 8 7 8 6
7 12 11 5 2 7 13 13 16 22 23 23 21 20 20 20 19 19 24 24 25 24 23 24 25 26 26 26 24 22 20 21 22 19 16 14 12 14 13 12 11 9 9 9 9 9 8 7 6
6 12 4 4 3 3 20 15 15 13 19 21 22 21 19 18 18 17 17 20 23 25 23 22 23 24 25 25 24 23 23 24 26 24 20 18 16 15 16 14 12 12 11 11 10 9 8 7 6
12 10 4 6 6 8 3 12 10 20 15 12 14 13 20 18 16 17 17 20 21 22 22 22 22 23 23 23 23 22 23 26 25 21 21 21 17 18 17 16 14 13 12 12 11 10 9 7 6
5 7 1 2 1 5 8 6 7 8 9 10 11 9 10 14 14 14 13 19 20 20 21 21 21 21 21 21 22 21 24 27 24 21 22 19 18 20 20 18 17 16 15 13 12 10 9 8 6
3 4 3 2 6 6 8 10 9 10 16 16 15 14 11 10 11 10 11 15 16 17 17 17 19 20 20 22 23 25 28 23 20 23 21 21 21 20 21 20 18 16 15 14 12 11 9 7 6
3 3 5 2 3 3 3 4 5 14 14 15 14 13 10 10 10 11 10 13 14 14 16 17 19 20 22 22 21 25 24 23 22 22 21 21 21 22 22 20 18 16 15 14 12 11 9 8 7
8 7 11 3 4 2 2 2 5 5 6 4 5 8 7 9 9 9 11 14 15 16 17 19 19 20 21 20 20 23 22 22 22 20 21 21 22 22 22 21 19 17 17 15 13 12 11 12 11

GFSSGP_925_spd_207.txt.gz
Wind_Speed
7 8 5 2 3 4 3 6 4 4 4 3 6 10 10 3 3 3 22 23 28 29 25 23 22 20 18 17 17 19 20 20 20 19 19 19 18 18 18 18 18 17 16 16 16 16 17 15 16
4 6 2 1 3 1 3 6 6 3 7 7 10 7 7 3 4 11 17 29 28 31 28 23 21 20 19 18 17 20 20 20 19 20 18 18 17 19 18 17 17 16 15 15 15 15 15 16 17
4 1 3 2 3 4 3 2 6 3 6 5 5 7 5 4 6 10 30 29 30 28 27 24 21 20 21 19 17 19 19 19 18 18 18 20 19 17 16 15 15 15 14 14 13 14 14 15 15
3 3 3 1 5 5 4 7 5 7 4 7 7 7 4 7 10 20 33 27 30 27 26 23 21 21 22 18 17 19 19 20 19 18 17 18 17 15 14 14 13 13 13 12 12 13 15 15 16
0 2 1 3 5 4 1 12 7 4 6 6 5 2 4 4 25 35 32 29 32 28 25 22 21 21 22 18 17 19 19 19 18 18 17 16 14 14 13 12 13 12 12 12 13 13 14 14 15
1 2 1 4 4 5 5 16 6 6 5 8 7 6 3 25 34 32 31 29 30 29 26 23 20 21 21 19 18 19 19 19 18 17 16 15 14 13 13 13 13 13 12 12 11 11 12 13 12
3 3 4 4 3 6 5 9 8 8 7 6 13 5 6 12 30 30 31 26 25 26 26 23 21 22 20 19 19 17 18 17 16 15 15 14 14 14 14 13 13 12 11 11 11 10 11 12 11
1 3 2 4 5 6 3 3 5 8 7 9 10 8 8 16 31 28 27 27 25 24 25 23 21 22 22 21 18 17 16 16 14 14 15 14 14 13 12 11 11 11 11 12 13 13 10 10 10
4 2 4 5 5 5 2 3 4 0 7 4 2 8 12 38 35 29 32 29 26 24 24 22 22 22 22 21 18 17 15 13 13 14 15 14 13 11 11 11 11 11 13 12 12 13 12 10 11
4 4 7 6 7 2 6 3 5 4 5 4 5 11 34 37 34 27 27 24 30 27 23 22 22 23 21 20 18 16 15 13 14 14 12 10 11 8 9 11 10 10 8 9 9 9 9 10 9
6 5 4 7 4 6 7 7 3 6 3 6 11 14 21 27 22 24 24 26 29 28 26 25 23 23 21 18 18 17 16 15 15 12 11 12 11 7 5 7 6 6 8 6 6 5 6 9 7
4 7 6 7 4 5 7 7 3 6 6 11 19 20 19 15 17 24 23 29 33 33 27 29 26 26 23 20 20 18 18 15 13 13 13 12 9 8 7 8 6 3 6 5 4 5 5 10 10
17 4 5 10 8 10 8 8 4 8 7 12 17 18 21 14 18 22 25 30 33 33 27 31 27 26 24 21 21 18 18 18 17 17 14 13 10 8 5 4 1 2 4 5 7 9 12 15 13
15 18 11 9 12 9 12 10 2 5 4 16 19 17 19 16 17 21 27 30 35 34 29 32 29 26 26 22 22 20 18 17 17 18 15 13 9 8 5 4 3 3 5 7 8 9 11 13 11
12 10 18 11 11 6 7 11 8 8 8 18 16 15 16 15 17 24 28 31 36 36 33 32 31 28 25 23 22 22 21 20 18 16 14 14 11 8 6 5 3 3 10 10 9 9 13 12 13
17 5 7 17 10 8 5 9 9 8 13 14 14 13 15 16 21 24 24 30 34 35 36 33 32 31 28 24 23 22 21 21 19 19 16 14 13 10 8 6 5 7 13 11 9 11 12 12 11
14 12 14 17 14 6 10 6 15 7 14 13 14 15 15 15 18 26 26 31 37 38 38 36 34 32 30 26 25 23 23 22 19 17 15 14 13 12 9 7 7 11 14 14 13 13 12 10 11
19 24 20 22 19 18 10 12 9 7 15 17 15 15 15 17 21 30 29 34 38 38 38 38 35 33 31 27 25 25 23 21 18 17 15 14 14 13 11 10 11 12 15 15 16 16 12 11 17
16 13 20 14 14 15 16 11 14 14 12 16 15 15 16 19 21 27 29 33 38 39 38 41 38 36 34 32 32 29 29 24 21 20 18 16 15 14 12 12 13 13 14 15 17 17 17 18 19
18 14 18 4 14 6 5 14 14 12 11 16 18 18 19 15 15 21 27 32 36 38 40 40 41 39 37 35 36 33 32 25 23 21 20 18 16 14 13 13 14 14 16 15 16 17 19 20 19
17 22 17 11 5 12 3 12 14 8 7 9 14 19 17 21 20 18 25 29 33 35 38 42 42 42 40 38 34 30 28 23 24 24 23 20 17 16 15 14 14 15 16 18 17 17 19 16 17
18 15 14 11 14 9 18 8 24 14 12 10 14 13 18 20 20 18 24 30 33 37 39 39 41 43 41 40 38 38 35 28 32 32 26 22 20 19 17 15 15 14 15 18 19 18 17 15 15
16 13 14 15 13 5 11 9 16 15 21 18 18 10 18 21 22 22 24 35 37 36 39 42 41 41 39 44 43 41 35 34 27 27 25 24 22 19 18 18 17 16 16 15 17 19 18 15 14
9 12 5 2 11 8 12 14 11 23 26 16 16 17 15 20 21 23 34 32 33 33 36 37 39 40 40 45 43 44 41 36 29 28 28 27 24 22 20 19 18 17 17 16 17 17 16 16 14
9 13 3 3 4 3 16 12 19 12 19 22 20 19 14 17 19 21 20 25 31 34 38 38 38 38 43 45 44 46 42 38 34 32 33 31 28 25 23 23 21 19 18 16 16 16 15 15 15
15 11 4 5 4 3 6 12 12 18 15 8 19 19 20 16 18 20 23 31 35 38 39 40 41 38 41 44 42 45 41 36 35 32 33 34 32 28 25 23 21 20 19 18 17 16 16 15 15
3 8 2 5 2 3 5 3 5 8 9 8 8 10 17 19 16 20 20 32 34 35 39 41 40 38 40 42 37 40 40 38 37 34 31 33 30 27 25 24 22 22 20 19 19 19 18 16 14
5 9 4 1 5 4 3 3 5 6 16 10 8 9 15 13 16 12 17 27 31 35 37 36 38 38 39 39 38 40 38 36 36 33 32 32 30 27 26 26 24 24 22 21 20 20 18 16 15
4 4 3 3 1 3 2 4 2 5 5 10 5 6 8 8 7 7 8 18 24 27 33 37 38 37 40 42 40 38 36 35 34 33 33 32 31 28 28 28 27 26 25 24 22 21 19 18 17
4 4 4 3 5 1 1 2 3 4 6 6 3 7 4 6 7 6 7 12 20 26 30 34 34 34 34 36 36 36 34 32 31 31 32 32 31 27 28 28 28 27 26 25 24 23 21 20 18

GFSSGP_925_spd_210.txt.gz
Wind_Speed
7 7 2 3 4 4 3 5 1 6 2 3 1 7 8 4 2 3 15 18 30 28 26 22 21 21 21 20 20 21 20 20 20 20 20 19 18 18 17 17 16 15 15 14 15 14 14 16 16
4 4 2 2 4 3 4 4 3 4 4 10 8 5 5 2 3 9 16 30 32 32 29 24 22 21 20 19 20 24 21 20 19 20 19 18 18 16 16 15 14 13 14 13 13 13 14 14 15
2 2 3 3 3 5 4 3 1 4 5 2 5 6 4 5 6 16 19 36 34 31 28 25 23 21 19 20 22 23 22 21 19 17 17 20 16 15 15 14 13 12 12 12 13 13 14 14 15
1 4 3 3 5 5 5 4 3 3 4 7 6 8 3 2 14 15 39 36 34 31 27 24 23 21 20 20 20 21 20 19 18 19 19 17 15 14 13 12 12 12 11 11 12 14 15 14 14
1 2 2 2 4 3 4 4 5 3 4 4 1 4 3 4 20 35 34 36 35 31 27 25 23 22 20 19 21 23 21 20 19 18 17 15 14 13 12 12 11 12 12 12 12 13 13 13 14
1 2 2 4 4 3 5 6 6 4 4 3 6 6 3 19 34 35 33 35 32 31 27 25 24 23 21 20 21 22 22 21 19 17 16 15 13 12 13 13 12 12 11 11 11 11 11 12 12
4 3 4 3 4 2 6 6 5 8 6 5 10 5 2 11 31 35 33 33 31 29 27 25 25 23 21 21 22 21 20 19 18 17 16 14 14 14 14 13 13 12 11 10 9 10 10 11 11
4 4 3 5 5 5 5 2 3 10 7 7 4 8 7 16 33 36 33 32 31 29 28 26 25 25 22 22 20 20 19 18 17 16 15 15 14 14 13 12 12 12 12 12 11 10 10 12 12
4 2 5 6 6 4 5 2 1 2 8 1 5 7 12 33 37 34 32 30 30 31 29 27 27 25 24 23 21 18 18 17 16 17 17 16 14 12 12 12 13 14 11 11 12 13 8 8 12
5 5 8 5 3 1 5 6 6 1 6 1 2 3 34 36 35 30 29 27 29 30 31 29 27 27 25 23 23 20 18 16 16 17 16 15 13 12 13 12 12 9 8 7 11 10 10 8 9
6 6 5 4 1 4 4 7 5 4 5 7 9 15 26 29 25 25 24 28 29 34 32 29 29 28 27 25 23 20 18 17 18 16 14 13 11 10 10 9 7 7 7 7 10 8 6 8 7
5 9 6 3 3 4 4 8 9 6 6 8 15 24 24 21 21 26 25 27 33 34 32 30 29 30 28 25 24 21 20 20 19 15 14 14 12 8 9 7 8 8 7 12 9 9 9 9 8
14 7 10 8 3 3 3 5 6 9 8 7 14 19 24 22 23 24 26 27 33 32 32 33 31 32 28 25 23 23 22 21 19 16 16 13 13 11 10 8 7 4 6 9 12 13 12 12 12
11 9 4 4 2 4 5 7 5 7 5 12 17 19 19 22 25 21 27 29 33 34 35 35 33 32 30 27 26 24 23 20 19 18 17 15 12 10 8 8 5 5 7 10 11 12 14 12 11
9 12 14 14 3 3 2 11 9 14 8 13 15 17 18 19 24 26 33 32 34 36 36 37 35 33 32 28 26 23 22 21 21 21 19 16 14 12 10 8 6 8 11 14 15 13 12 13 13
13 11 13 19 16 7 5 15 9 5 10 12 13 12 16 17 23 26 30 33 34 32 35 39 36 34 32 29 27 24 23 22 22 22 20 19 16 14 13 10 9 12 14 14 14 15 14 13 12
16 11 26 18 26 17 15 4 16 9 9 12 13 13 15 14 15 22 29 33 37 39 38 40 38 35 35 30 27 26 25 24 24 23 22 20 19 16 14 12 12 17 16 16 14 15 15 16 13
14 24 20 23 18 25 22 13 11 5 8 14 15 14 13 16 21 27 28 31 36 39 41 41 39 37 34 30 28 27 26 25 25 25 22 20 19 18 15 13 14 19 19 20 16 18 15 13 16
14 16 24 14 12 20 30 20 16 10 7 8 11 14 16 18 18 26 27 30 35 37 39 41 40 39 37 35 33 32 31 30 27 26 23 21 19 18 17 15 16 19 20 23 20 20 17 18 20
25 18 18 7 14 17 20 27 20 15 11 11 14 15 19 15 15 22 27 29 34 36 40 39 42 42 41 39 38 33 34 32 29 25 23 22 21 20 18 17 18 19 20 22 23 23 22 23 23
23 16 17 9 11 10 4 13 16 15 13 9 15 19 19 20 20 18 25 30 32 36 40 41 44 44 43 38 38 32 32 30 27 27 27 25 23 20 19 18 19 20 21 24 25 24 25 24 27
13 14 14 14 14 10 13 11 21 20 13 12 14 17 16 18 17 18 20 28 35 38 39 43 43 43 44 43 42 40 36 29 34 36 31 27 24 22 21 20 19 20 21 23 25 24 24 23 27
15 14 13 11 13 6 12 8 18 16 26 22 14 15 18 20 21 21 23 35 36 36 39 41 42 41 42 47 44 43 35 33 33 34 31 28 26 25 22 21 21 20 21 22 23 25 25 24 23
15 15 5 9 10 9 12 11 10 20 21 23 9 14 18 19 20 21 34 33 31 33 36 38 39 43 43 47 46 47 40 39 36 32 33 32 29 27 25 24 22 22 22 24 24 23 23 23 19
19 13 3 5 5 5 12 10 18 6 17 17 22 17 18 19 20 20 19 24 32 34 35 38 41 40 42 47 46 49 45 46 44 38 37 36 33 32 30 27 26 25 23 23 23 23 22 22 20
23 13 5 6 6 3 5 9 11 13 18 8 12 19 19 20 20 20 20 29 36 38 39 40 41 41 43 45 43 48 46 46 44 41 38 38 37 35 31 28 27 25 23 23 22 21 20 20 19
10 5 4 5 3 3 4 2 7 7 11 13 9 10 17 19 18 18 20 31 35 34 39 44 41 41 41 43 39 43 45 42 44 41 37 35 35 35 33 29 28 26 24 24 22 22 21 19 19
2 6 4 2 5 4 2 3 5 4 8 7 7 10 12 11 17 18 18 27 32 36 39 37 38 40 38 39 41 41 45 45 42 38 37 34 32 34 31 30 29 28 25 25 23 23 21 20 20
4 4 3 4 1 3 3 2 4 7 6 9 9 8 8 12 11 11 11 23 28 29 31 35 35 36 38 39 36 39 40 43 43 41 38 37 34 35 32 32 32 30 28 27 25 24 23 22 20
3 2 4 6 6 1 1 1 6 6 7 7 8 8 3 3 1 4 8 13 22 27 29 31 31 32 34 35 36 37 42 43 44 40 37 36 34 33 32 33 32 31 30 29 28 27 25 24 23

GFSSGP_925_spd_216.txt.gz
Wind_Speed
6 4 4 3 3 4 3 5 2 2 2 1 4 4 7 2 4 4 7 10 24 25 19 19 23 22 23 23 19 16 19 18 18 17 16 16 15 15 14 14 14 13 14 14 14 14 14 14 14
5 6 3 2 4 2 4 4 5 4 4 7 6 3 2 2 2 5 15 21 26 24 25 24 24 25 25 22 17 18 19 18 17 17 16 15 14 14 13 13 12 12 13 12 13 13 13 13 15
4 5 1 4 3 5 5 5 5 1 7 2 4 4 3 3 2 16 11 29 30 27 28 28 26 26 24 19 17 19 20 19 17 16 16 14 13 13 12 12 11 12 14 12 12 12 13 14 15
2 4 3 3 6 5 6 3 2 6 2 3 3 5 2 6 11 12 28 30 31 29 27 26 25 24 22 19 20 21 20 18 17 15 14 13 12 12 12 11 10 11 12 12 12 12 13 13 16
3 3 1 2 5 4 4 2 6 6 5 4 4 4 2 2 8 20 33 27 28 29 26 24 22 22 22 22 20 20 18 17 16 15 13 12 11 11 11 11 12 12 12 12 12 12 13 13 16
2 3 1 4 4 5 4 5 3 5 4 5 5 7 4 4 21 31 25 26 27 29 27 23 21 20 22 24 23 22 18 18 17 14 12 12 11 11 10 11 11 11 10 11 11 12 13 14 16
3 3 5 3 5 4 5 3 5 6 6 6 8 7 0 5 21 30 26 26 28 28 27 24 21 20 21 23 23 21 19 19 16 14 13 12 12 12 12 12 11 10 10 10 10 12 12 14 16
3 3 4 5 5 5 4 4 2 6 5 3 7 6 5 7 26 24 25 25 29 29 27 25 23 21 21 22 22 21 20 18 17 15 13 13 13 12 12 12 11 9 10 10 13 11 12 12 15
4 1 5 6 6 4 2 3 2 2 6 1 6 5 5 30 31 25 24 24 27 28 28 26 24 22 22 23 22 22 20 18 16 15 14 14 14 13 12 12 11 10 10 12 12 11 10 11 14
4 3 7 4 3 4 1 1 0 1 3 2 3 5 25 30 30 28 26 26 26 25 27 29 27 25 24 24 22 21 20 18 17 16 16 15 14 13 15 13 10 9 9 10 10 11 11 13 15
4 6 3 3 5 2 2 3 2 5 3 5 8 12 20 27 25 24 25 28 29 26 26 29 29 27 26 25 24 22 20 19 17 17 17 15 15 14 15 13 10 9 9 8 9 11 10 11 10
7 5 4 4 3 3 3 2 3 4 4 1 6 17 18 19 21 27 28 30 32 29 26 27 27 30 28 27 26 23 22 20 19 19 17 16 15 13 13 10 9 9 10 9 10 11 10 10 11
8 12 7 11 6 6 2 6 5 7 8 3 9 18 22 20 24 23 25 26 27 29 27 31 29 34 31 29 27 25 24 22 21 20 18 16 14 13 11 9 8 10 10 12 12 13 12 11 11
4 10 13 12 13 6 5 4 5 7 3 5 12 17 18 21 26 23 27 29 31 30 30 34 32 35 33 31 30 28 25 22 22 21 19 16 14 12 12 11 9 9 12 13 14 13 13 13 10
6 10 14 14 17 8 3 15 15 8 4 8 8 9 13 14 23 29 32 33 35 33 30 37 37 35 34 33 30 29 27 25 24 22 20 18 16 12 12 11 10 10 13 15 16 16 10 11 11
4 5 9 5 11 7 9 33 12 12 8 9 9 8 10 14 22 23 27 28 30 31 34 38 39 36 35 34 32 30 28 26 26 24 21 20 18 17 14 14 12 11 16 17 17 16 15 12 11
5 12 13 8 12 11 17 26 10 7 9 10 9 9 12 11 13 22 25 28 29 32 36 39 38 38 37 35 32 31 29 28 27 25 23 23 20 19 17 15 12 14 18 19 18 18 17 16 15
6 8 9 10 3 14 22 22 9 8 9 9 8 10 10 11 18 23 27 29 31 33 38 41 40 38 37 35 33 31 30 30 29 27 27 24 23 20 20 17 15 16 20 21 19 20 19 19 19
5 7 9 14 4 5 18 22 13 14 5 7 8 9 11 14 14 20 26 29 30 33 37 39 39 39 38 37 37 34 35 33 32 30 28 28 26 23 23 19 17 19 23 23 22 22 22 22 20
11 13 18 12 8 9 16 18 19 16 17 8 10 10 13 13 9 16 24 29 31 34 38 39 41 41 41 40 38 29 33 35 34 31 30 30 29 26 26 23 21 21 24 25 26 27 26 22 24
16 16 16 14 11 10 7 19 15 21 23 16 16 11 12 14 14 12 17 30 29 33 39 40 41 42 43 39 35 30 27 27 32 32 32 32 30 28 27 25 23 23 26 29 29 29 28 23 28
17 18 17 12 4 12 6 10 16 18 21 24 21 13 13 12 13 14 18 24 34 40 37 39 41 43 43 41 39 37 33 25 35 38 36 34 32 30 28 26 25 25 27 31 32 31 30 24 28
17 10 12 9 16 6 23 7 6 17 20 22 24 22 16 16 16 16 17 30 36 34 36 37 38 40 43 43 42 42 33 31 30 37 36 35 34 32 30 28 27 27 28 30 32 33 34 29 26
2 12 8 9 5 10 25 8 8 11 24 20 18 22 20 15 16 16 27 31 29 32 33 37 39 41 43 45 45 43 38 32 34 33 37 38 37 35 32 30 29 28 29 30 31 34 34 33 28
14 7 2 4 7 12 10 11 24 10 6 16 21 22 21 18 18 17 18 19 28 32 36 36 38 39 40 43 43 43 42 40 41 41 39 40 41 39 37 33 31 30 30 29 30 31 34 33 31
16 12 4 7 5 13 12 10 7 18 10 5 4 11 15 16 16 18 20 24 29 34 38 39 39 39 40 43 43 43 44 42 44 44 42 42 45 44 39 35 33 32 30 30 29 30 32 33 31
6 10 18 6 2 4 9 9 2 8 8 8 7 6 7 12 14 18 17 24 28 32 36 41 39 39 39 41 40 40 42 41 40 42 44 43 42 42 40 37 35 33 32 31 29 29 30 31 30
6 10 7 9 2 10 4 5 1 10 10 8 8 9 7 6 7 11 14 19 27 33 38 38 41 42 42 39 39 40 39 41 40 41 44 43 42 39 37 38 37 36 34 33 32 29 28 29 29
9 6 6 5 8 4 4 1 4 6 7 8 6 8 9 10 6 6 8 17 24 25 27 32 34 35 36 37 39 38 38 40 41 43 43 44 42 39 38 38 36 38 37 35 34 30 27 27 26
4 10 13 4 6 8 3 2 5 7 6 5 4 7 6 5 6 5 5 1 8 20 27 28 29 29 34 34 33 37 35 39 41 44 44 44 44 41 41 39 38 38 39 38 37 34 33 30 30

GFSSGP_925_spd_219.txt.gz
Wind_Speed
6 2 5 4 2 2 2 4 1 2 2 3 6 5 6 2 4 2 4 10 24 29 26 24 21 25 24 23 19 21 22 20 19 18 17 17 16 15 14 15 15 15 15 15 15 14 14 15 17
5 1 3 1 4 1 3 3 5 4 2 8 6 4 2 2 1 3 11 18 26 28 26 25 21 23 26 22 19 21 23 21 19 18 16 16 15 14 14 14 13 17 14 14 14 14 15 16 19
4 2 2 2 2 5 4 4 4 2 7 3 5 2 4 2 1 12 7 27 27 26 24 27 26 27 25 21 18 22 23 22 19 18 16 15 14 14 13 13 15 15 14 14 13 14 15 17 19
1 4 2 3 5 5 6 2 2 5 2 1 3 6 2 2 7 9 26 26 28 28 28 28 29 28 24 19 19 23 24 21 20 18 15 14 14 13 13 12 12 14 14 14 14 15 16 19 20
3 2 1 3 4 4 4 2 5 5 3 3 2 5 1 1 9 17 26 26 32 31 30 29 29 27 22 21 22 24 24 22 20 15 14 14 13 13 13 14 14 14 14 14 14 16 16 19 19
2 2 0 4 4 4 3 4 5 4 3 3 4 7 3 4 16 27 24 24 31 33 30 28 26 24 23 23 23 22 21 19 20 16 15 13 13 12 14 14 13 14 13 14 15 16 17 17 18
4 3 4 3 3 4 3 2 4 6 5 5 5 6 2 5 18 33 23 25 28 29 29 27 25 24 24 23 22 20 20 20 17 16 16 14 14 14 14 14 14 13 14 14 16 16 16 19 18
3 3 2 4 3 5 3 4 3 6 6 2 3 5 5 9 25 26 23 26 26 27 28 27 25 25 27 26 24 21 21 21 18 16 15 16 15 15 15 13 13 12 15 15 14 15 15 17 19
3 2 4 6 6 5 1 4 0 2 5 3 2 1 2 35 31 24 23 24 25 28 27 26 26 26 26 26 25 22 22 19 17 17 15 16 17 16 15 14 13 13 15 15 14 13 13 15 16
4 4 7 5 4 4 4 3 2 2 3 3 3 5 17 33 32 27 26 25 29 28 28 28 27 26 26 27 26 24 23 20 19 18 17 17 17 17 17 14 12 13 14 15 13 13 12 14 16
5 14 4 3 5 3 3 3 1 4 4 6 8 10 18 27 27 27 27 27 27 29 28 28 29 27 28 29 28 26 24 22 19 19 19 18 18 18 16 14 13 13 12 14 14 15 15 14 12
9 4 5 3 4 2 2 5 5 4 4 2 6 19 20 20 25 29 29 30 28 30 28 30 28 29 29 29 28 27 25 23 22 21 20 20 19 19 16 14 13 12 10 12 14 15 14 13 13
5 4 5 5 7 6 6 6 5 6 6 5 7 15 20 18 23 24 26 27 29 28 27 29 30 33 31 30 29 28 26 25 23 23 21 20 19 19 16 12 13 13 12 12 15 15 15 14 13
6 5 6 4 7 4 5 7 4 5 5 4 8 14 16 18 24 23 25 27 31 32 30 27 29 32 33 31 31 29 27 25 24 24 22 20 18 16 15 12 12 14 14 15 16 15 16 16 15
5 6 10 2 1 4 0 17 19 6 4 6 6 5 10 15 21 28 32 30 31 30 29 29 26 31 34 33 32 30 29 26 25 24 23 21 18 16 15 13 13 14 15 16 17 16 12 15 12
5 1 5 3 7 7 8 28 4 10 10 14 8 6 9 14 22 21 21 26 29 27 30 27 27 31 34 36 33 31 29 27 26 25 24 22 19 17 16 16 15 15 17 19 20 18 16 13 13
2 4 10 9 12 7 16 20 17 9 8 14 11 9 10 11 14 24 25 25 27 30 30 29 31 31 34 36 33 32 30 29 27 26 26 23 22 20 20 19 16 16 20 21 20 19 18 19 16
6 5 5 8 2 6 14 16 10 7 8 16 12 12 11 12 19 25 27 28 28 30 30 32 35 35 34 35 33 31 31 30 29 28 28 25 25 23 21 20 18 19 22 22 21 20 20 20 19
3 3 5 4 3 7 16 12 10 9 10 11 9 10 11 13 13 20 25 31 28 30 32 35 35 36 35 36 36 35 35 33 32 31 30 27 27 26 24 23 22 22 24 25 23 22 22 20 20
7 10 17 3 8 5 13 18 13 13 16 13 12 13 14 12 9 17 26 30 34 34 35 37 40 39 42 38 38 27 30 35 35 33 31 30 29 28 27 27 25 24 26 27 27 26 24 17 24
15 14 6 8 5 11 10 20 15 14 17 17 17 16 11 15 14 14 20 31 30 33 39 40 40 41 43 39 34 30 26 25 31 34 36 33 32 31 29 28 27 26 27 30 30 30 27 22 27
16 11 16 7 5 5 6 13 17 9 19 20 21 21 21 16 12 13 16 23 33 39 36 38 40 41 42 41 37 37 32 26 33 35 39 36 35 34 32 31 30 28 28 31 32 32 31 26 27
10 8 13 12 13 4 13 5 5 13 18 18 20 22 23 22 16 17 17 29 36 32 34 35 36 39 42 45 41 40 33 31 28 34 37 36 37 36 35 33 32 31 31 32 33 34 36 32 29
1 7 4 3 5 8 17 11 5 13 19 13 17 20 24 21 19 17 26 29 27 30 32 35 38 42 43 44 43 43 38 31 33 34 37 38 39 38 37 35 34 32 32 34 34 35 37 37 33
14 7 3 4 5 8 10 11 14 12 15 15 17 19 20 22 20 19 17 18 24 30 35 36 37 38 40 41 42 43 41 36 40 39 38 36 37 42 42 39 37 35 34 34 34 36 38 38 38
19 11 5 6 4 11 6 8 6 19 19 23 9 8 15 19 20 22 23 25 29 33 37 37 37 39 40 43 44 42 40 38 41 42 39 41 42 44 44 42 39 38 36 35 35 36 37 38 39
6 9 10 3 4 6 5 4 2 7 8 10 7 7 7 6 13 17 18 25 29 31 35 39 39 39 38 43 41 39 38 39 37 38 43 43 43 42 43 43 42 40 37 38 37 38 39 39 39
0 4 4 3 4 5 4 1 3 13 10 12 7 7 7 6 7 7 11 18 24 27 31 33 37 40 42 38 38 40 42 41 37 39 43 42 44 42 40 41 43 43 41 40 39 40 39 39 39
4 4 4 5 2 3 5 3 7 7 9 5 6 7 10 9 6 5 6 6 18 21 26 30 31 32 33 34 35 34 36 38 38 41 44 46 45 43 41 41 42 45 44 43 42 42 42 40 39
9 7 5 4 4 4 5 4 6 7 7 6 7 10 11 10 11 10 11 14 9 13 22 24 27 28 30 30 31 33 33 35 38 42 46 45 46 43 42 42 43 44 44 46 46 45 45 43 41

GFSSGP_925_spd_222.txt.gz
Wind_Speed
8 6 5 4 5 4 8 4 3 4 3 2 7 3 4 3 2 3 7 8 19 25 24 24 23 23 24 22 20 24 23 20 20 19 18 17 16 15 14 15 15 14 15 14 14 14 16 17 18
6 3 3 2 6 9 8 7 7 5 2 8 7 5 4 2 3 7 14 13 24 24 24 23 24 24 25 21 20 25 23 21 20 19 18 17 16 15 14 15 16 14 14 14 14 16 17 18 18
3 1 3 4 7 12 7 8 8 2 8 6 5 2 1 4 5 15 7 23 24 24 24 24 27 25 25 21 21 25 23 22 20 18 17 15 15 15 13 16 16 15 14 13 14 17 18 18 19
2 4 3 6 12 12 11 1 4 8 5 5 3 4 3 1 8 9 20 23 23 23 23 25 27 30 25 22 22 25 24 22 21 18 17 15 14 13 13 15 16 15 13 13 16 18 17 18 19
2 2 7 7 14 8 9 6 5 8 5 7 6 5 3 3 7 16 23 23 22 22 23 26 30 28 24 21 23 25 23 22 21 18 16 14 14 14 14 14 14 14 14 14 18 17 18 19 20
5 3 8 15 15 11 9 5 6 8 7 6 6 7 4 4 13 24 23 20 20 22 25 26 29 27 23 22 24 26 23 22 18 19 16 14 13 15 15 14 14 14 14 16 18 17 17 19 21
9 7 15 15 12 16 9 6 10 9 9 9 2 8 3 9 15 24 22 20 20 22 24 25 25 24 22 23 26 26 24 22 21 16 16 15 13 15 14 14 13 14 15 17 17 17 18 19 20
5 6 14 13 13 16 3 5 4 11 9 3 7 6 5 15 22 25 22 19 20 20 21 23 23 22 21 21 24 23 21 23 19 16 16 16 14 15 15 13 13 15 17 15 15 16 17 19 19
3 8 13 18 13 12 2 2 1 4 5 3 5 2 1 25 28 26 24 19 19 20 21 21 22 22 21 20 21 19 23 20 17 17 17 17 13 13 12 12 14 16 17 15 14 15 15 16 16
9 13 15 7 11 12 8 8 10 5 7 6 4 3 15 28 30 29 30 26 25 23 24 23 22 22 22 22 22 20 21 17 16 15 16 14 15 13 12 14 16 15 16 14 13 14 13 14 11
11 17 13 7 10 13 13 10 4 6 8 9 10 10 19 28 28 27 28 30 29 27 24 25 23 23 24 23 24 21 19 17 16 16 17 15 14 16 13 15 15 16 15 14 12 12 10 9 8
12 15 12 14 15 11 8 6 11 9 10 5 7 12 19 21 24 29 31 32 32 28 26 25 24 23 23 22 23 21 20 18 18 17 17 17 16 15 14 14 13 14 10 11 10 9 10 10 10
13 10 8 5 4 10 10 14 15 15 13 9 3 10 17 17 22 26 25 26 29 28 27 26 25 24 23 23 22 22 20 19 18 18 18 17 16 16 14 13 12 10 10 11 11 11 10 11 11
4 7 11 9 8 8 10 17 14 14 13 9 2 8 13 18 21 19 26 29 32 30 28 27 26 25 23 23 22 22 20 19 18 19 19 18 16 16 14 13 12 11 10 11 11 11 11 10 11
3 8 11 14 15 14 8 21 23 17 18 19 15 6 10 13 21 27 21 25 29 30 29 29 27 26 25 24 22 22 21 20 19 19 19 19 17 16 14 12 12 12 12 13 13 12 11 11 10
2 6 9 10 17 9 14 28 11 13 19 22 23 16 12 14 23 24 22 23 25 29 30 28 27 28 27 25 23 22 21 21 20 20 19 20 18 17 15 13 13 13 13 14 14 13 12 11 10
4 6 9 10 10 9 18 16 8 14 18 16 17 18 16 15 18 24 26 26 26 27 30 30 30 29 30 26 23 22 22 22 21 20 20 21 19 18 16 15 14 15 14 15 15 13 13 12 11
4 5 5 10 0 12 21 21 19 15 11 14 20 20 17 17 18 24 27 26 26 28 29 31 33 28 30 29 23 23 22 23 22 22 22 21 20 19 17 16 16 17 15 16 15 14 12 13 14
3 6 9 6 7 10 16 18 18 12 13 18 19 17 16 17 17 20 28 30 29 32 33 34 35 32 31 30 27 26 26 25 23 22 22 22 21 21 20 18 18 18 17 18 18 16 16 13 14
13 14 16 16 16 13 17 23 19 22 17 18 17 20 21 18 17 18 26 30 35 36 37 35 36 36 36 34 30 27 25 25 24 22 23 25 23 23 23 21 21 20 18 19 20 20 19 10 19
13 14 13 14 11 15 16 26 25 26 23 21 22 22 21 21 19 16 22 30 36 35 36 37 36 33 35 32 28 23 21 20 24 25 28 30 26 26 30 25 23 23 21 23 24 24 22 15 20
13 7 13 13 8 6 0 10 14 13 20 21 22 23 23 22 22 17 20 26 32 37 36 35 36 36 34 35 31 32 30 26 28 28 26 26 28 29 32 29 27 26 24 23 27 29 26 19 22
7 8 9 12 13 13 19 9 7 14 19 23 18 20 23 25 25 24 19 27 32 31 35 35 35 36 35 37 37 36 33 30 24 25 25 27 30 32 34 33 29 28 29 30 30 29 29 28 26
2 7 12 9 9 8 19 15 14 16 19 21 18 21 21 22 24 24 27 27 28 28 31 33 36 40 39 39 40 38 36 32 27 27 28 29 31 36 36 37 35 32 33 35 35 34 35 33 26
12 4 4 6 7 8 7 12 20 18 19 24 22 19 23 19 20 23 21 21 27 29 33 33 35 36 38 38 38 39 38 34 32 31 30 28 28 32 38 38 37 40 40 38 36 36 37 38 35
15 14 6 7 5 8 6 9 13 19 21 21 24 20 21 16 17 21 22 24 28 30 33 34 35 36 36 38 41 41 39 36 36 34 32 32 33 40 40 43 41 43 42 41 38 37 39 37 38
3 10 7 2 4 6 9 16 12 10 4 9 8 7 10 10 10 19 21 25 27 27 31 36 36 36 35 39 37 37 37 38 37 35 34 33 34 36 38 43 45 46 45 45 42 38 38 36 38
2 3 3 4 4 8 7 7 5 12 13 11 11 10 9 6 5 5 8 21 24 26 27 29 31 32 36 35 35 39 39 39 37 34 35 36 34 34 39 41 44 44 47 48 44 40 37 36 37
4 4 7 3 6 4 5 4 2 6 9 9 9 11 11 10 9 8 7 6 15 20 22 26 30 30 30 32 34 34 35 34 33 33 34 37 37 37 40 43 43 43 46 47 45 44 40 41 40
11 7 12 4 3 4 6 7 6 8 8 8 12 8 10 12 12 12 11 14 14 7 13 20 23 26 29 29 30 32 30 30 33 36 35 34 35 35 41 41 42 43 44 47 48 49 46 43 38